[Date Prev][Date Next][Thread Prev][Thread Next] - [Date Index][Thread Index][Author Index]
2 Line ISS Keps 4-20
- Subject: [sarex] 2 Line ISS Keps 4-20
- From: "Dave Larsen PhD" <doc@xxxxxxxxxxx>
- Date: Tue, 20 Apr 2004 03:33:28 -0700
ISS
1 25544U 98067A 04111.38153519 .00021957 00000-0 19426-3 0 6101
2 25544 51.6278 260.3766 0011112 51.4712 51.4299 15.68492758309240
----
Via the sarex mailing list at AMSAT.ORG courtesy of AMSAT-NA.
To unsubscribe, send "unsubscribe sarex" to Majordomo@amsat.org
AMSAT Home